GW5454 Weather Reports


time (UTC)temp
C
wind
direction
speed
KPH
gust
KPH
rain 1hr
cm
rain 24hr
cm
rain mn
cm
humidity
%
barometer
mb
20260505153232 19 188 1.6 3.2 0.00 0.00 0.00 56 1010.7
20260505152730 18 186 1.6 6.4 0.00 0.00 0.00 55 1010.5
20260505152226 18 212 4.8 6.4 0.00 0.00 0.00 56 1010.7
20260505151725 18 218 3.2 6.4 0.00 0.00 0.00 56 1010.5
20260505151223 18 219 1.6 6.4 0.00 0.00 0.00 54 1010.4
20260505150720 18 190 1.6 6.4 0.00 0.00 0.00 53 1010.4
20260505150218 18 225 3.2 6.4 0.00 0.00 0.00 55 1010.3
20260505140650 16 221 4.8 6.4 0.00 0.00 0.00 62 1009.8
20260505140148 16 239 1.6 6.4 0.00 0.00 0.00 63 1009.8
20260505130111 13 193 0.0 3.2 0.00 0.00 0.00 74 1009.1
20260505124601 12 206 1.6 8.0 0.00 0.00 0.00 76 1008.9
20260505124057 12 240 4.8 6.4 0.00 0.00 0.00 78 1008.6
20260505123553 12 243 1.6 3.2 0.00 0.00 0.00 81 1008.6
20260505123050 12 192 0.0 3.2 0.00 0.00 0.00 82 1008.7
20260505122547 12 189 0.0 3.2 0.00 0.00 0.00 82 1008.5
20260505122044 12 235 0.0 0.0 0.00 0.00 0.00 82 1008.5
20260505121540 12 195 0.0 0.0 0.00 0.00 0.00 82 1008.3
20260505121037 12 250 0.0 0.0 0.00 0.00 0.00 82 1008.3
20260505120534 12 250 0.0 0.0 0.00 0.00 0.00 82 1008.3
20260505120029 12 250 0.0 0.0 0.00 0.00 0.00 83 1008.2
20260505115524 12 250 0.0 0.0 0.00 0.00 0.00 83 1008.2
20260505115022 12 250 0.0 0.0 0.00 0.00 0.00 84 1008.2
20260505114519 12 250 0.0 0.0 0.00 0.00 0.00 84 1008.0
20260505114015 12 250 0.0 0.0 0.00 0.00 0.00 84 1007.9
20260505113512 12 250 0.0 0.0 0.00 0.00 0.00 83 1008.1
20260505113009 12 250 0.0 0.0 0.00 0.00 0.00 83 1008.1
20260505112505 12 250 0.0 0.0 0.00 0.00 0.00 82 1008.0
20260505112003 12 250 0.0 0.0 0.00 0.00 0.00 81 1007.8
20260505111501 13 250 0.0 0.0 0.00 0.00 0.00 81 1007.6
20260505110958 13 250 0.0 0.0 0.00 0.00 0.00 80 1007.8
20260505110455 13 250 0.0 0.0 0.00 0.00 0.00 79 1007.6
20260505101927 13 250 1.6 3.2 0.00 0.00 0.00 79 1006.7
20260505101426 13 250 1.6 3.2 0.00 0.00 0.00 79 1006.8
20260505100922 13 195 0.0 0.0 0.00 0.00 0.00 78 1006.6
20260505100419 13 192 0.0 0.0 0.00 0.00 0.00 78 1006.7
20260505095915 13 199 0.0 3.2 0.00 0.00 0.00 79 1006.6
20260505095412 13 190 0.0 3.2 0.00 0.00 0.00 79 1006.7
20260505094908 13 191 0.0 0.0 0.00 0.00 0.00 79 1006.6
20260505094406 13 189 0.0 0.0 0.00 0.00 0.00 78 1006.4
20260505093901 14 188 0.0 0.0 0.00 0.00 0.00 76 1006.6
20260505093359 14 189 0.0 0.0 0.00 0.00 0.00 76 1006.7
20260505092856 14 185 0.0 3.2 0.00 0.00 0.00 76 1006.5
20260505092354 15 179 0.0 0.0 0.00 0.00 0.00 75 1006.6
20260505091850 15 207 0.0 0.0 0.00 0.00 0.00 74 1006.5
20260505091348 15 186 0.0 0.0 0.00 0.00 0.00 74 1006.3
20260505090846 15 193 0.0 0.0 0.00 0.00 0.00 74 1006.6
20260505090344 15 194 0.0 0.0 0.00 0.00 0.00 73 1006.5
20260505085841 15 194 0.0 0.0 0.00 0.00 0.00 73 1006.4
20260505085339 15 192 0.0 0.0 0.00 0.00 0.00 73 1006.2
20260505084837 15 191 0.0 3.2 0.00 0.00 0.00 73 1006.3
20260505084335 15 190 0.0 0.0 0.00 0.00 0.00 73 1006.4
20260505083832 15 196 0.0 3.2 0.00 0.00 0.00 73 1006.3
20260505083329 15 190 0.0 0.0 0.00 0.00 0.00 72 1006.5
20260505082826 15 189 0.0 0.0 0.00 0.00 0.00 70 1006.2
20260505082322 16 178 0.0 0.0 0.00 0.00 0.00 70 1006.1
20260505081819 16 192 0.0 0.0 0.00 0.00 0.00 70 1006.2
20260505081315 16 190 0.0 3.2 0.00 0.00 0.00 69 1006.4
20260505080812 16 181 0.0 3.2 0.00 0.00 0.00 68 1006.1
20260505080308 16 190 0.0 0.0 0.00 0.00 0.00 67 1006.0
20260505075803 16 190 0.0 0.0 0.00 0.00 0.00 67 1006.1
20260505075303 16 191 0.0 0.0 0.00 0.00 0.00 66 1005.9
20260505074758 16 192 0.0 0.0 0.00 0.00 0.00 66 1005.9
20260505074255 16 189 0.0 0.0 0.00 0.00 0.00 66 1005.9
20260505073753 16 189 0.0 3.2 0.00 0.00 0.00 66 1006.1
20260505073251 16 244 3.2 3.2 0.00 0.00 0.00 67 1005.9
20260505072747 16 192 0.0 3.2 0.00 0.00 0.00 67 1005.8
20260505072243 15 198 0.0 3.2 0.00 0.00 0.00 68 1005.6
20260505071739 15 182 0.0 0.0 0.00 0.00 0.00 70 1005.6
20260505071236 15 166 0.0 0.0 0.00 0.00 0.00 69 1005.6
20260505070734 15 166 0.0 0.0 0.00 0.00 0.00 68 1005.7
20260505070230 16 166 0.0 0.0 0.00 0.00 0.00 67 1005.5
20260505065725 16 166 0.0 0.0 0.00 0.00 0.00 64 1005.5
20260505065222 16 166 0.0 0.0 0.00 0.00 0.00 63 1005.4
20260505064719 16 166 0.0 0.0 0.00 0.00 0.00 63 1005.3
20260505064217 16 166 0.0 0.0 0.00 0.00 0.00 62 1005.3
20260505063715 17 166 0.0 0.0 0.00 0.00 0.00 62 1005.1
20260505063210 17 166 0.0 0.0 0.00 0.00 0.00 61 1005.2
20260505062707 17 166 0.0 0.0 0.00 0.00 0.00 59 1005.1
20260505062205 18 166 0.0 0.0 0.00 0.00 0.00 58 1005.2
20260505061701 18 177 0.0 3.2 0.00 0.00 0.00 57 1005.1
20260505061159 19 177 0.0 0.0 0.00 0.00 0.00 55 1005.0
20260505060657 19 166 0.0 0.0 0.00 0.00 0.00 52 1004.9
20260505060153 20 166 0.0 0.0 0.00 0.00 0.00 51 1005.0
20260505055648 20 153 1.6 6.4 0.00 0.00 0.00 51 1005.0
20260505055145 20 54 6.4 8.0 0.00 0.00 0.00 51 1005.0
20260505054643 20 134 3.2 6.4 0.00 0.00 0.00 50 1005.0
20260505054141 19 174 1.6 3.2 0.00 0.00 0.00 50 1004.8
20260505053638 19 267 3.2 6.4 0.00 0.00 0.00 50 1004.8
20260505053134 20 177 0.0 0.0 0.00 0.00 0.00 48 1004.7
20260505052631 20 177 0.0 0.0 0.00 0.00 0.00 47 1004.5
20260505052129 21 176 0.0 0.0 0.00 0.00 0.00 45 1004.5
20260505051625 21 177 0.0 3.2 0.00 0.00 0.00 45 1004.5
20260505051124 22 189 0.0 0.0 0.00 0.00 0.00 43 1004.7
20260505050621 22 189 0.0 0.0 0.00 0.00 0.00 42 1004.6
20260505050120 22 173 0.0 0.0 0.00 0.00 0.00 40 1004.5
20260505041549 22 177 1.6 8.0 0.00 0.00 0.00 38 1004.3
20260505041046 22 197 0.0 3.2 0.00 0.00 0.00 37 1004.3
20260505040543 22 208 0.0 3.2 0.00 0.00 0.00 38 1004.2
20260505040041 22 196 0.0 0.0 0.00 0.00 0.00 40 1004.1
20260505035537 21 204 0.0 0.0 0.00 0.00 0.00 39 1004.3
20260505035033 21 193 0.0 3.2 0.00 0.00 0.00 38 1003.9
20260505034530 21 197 0.0 0.0 0.00 0.00 0.00 40 1004.1
20260505034027 21 196 0.0 0.0 0.00 0.00 0.00 40 1003.7
20260505033524 21 195 0.0 0.0 0.00 0.00 0.00 41 1003.8
20260505033022 21 195 0.0 0.0 0.00 0.00 0.00 41 1003.8
20260505032520 22 195 0.0 0.0 0.00 0.00 0.00 41 1003.9
20260505032016 22 195 0.0 0.0 0.00 0.00 0.00 41 1003.8
20260505031513 22 195 0.0 0.0 0.00 0.00 0.00 39 1003.8
20260505031009 23 195 0.0 0.0 0.00 0.00 0.00 37 1003.7
20260505030506 23 195 0.0 0.0 0.00 0.00 0.00 34 1003.6
20260505030002 24 195 0.0 0.0 0.00 0.00 0.00 34 1003.7
20260505025458 24 195 0.0 0.0 0.00 0.00 0.00 32 1003.6
20260505024958 25 195 0.0 0.0 0.00 0.00 0.00 30 1003.5
20260505024454 26 191 0.0 0.0 0.00 0.00 0.00 31 1003.6
20260505023951 26 191 0.0 0.0 0.00 0.00 0.00 27 1003.5
20260505023448 27 191 0.0 0.0 0.00 0.00 0.00 27 1003.4
20260505022946 27 193 0.0 0.0 0.00 0.00 0.00 27 1003.6
20260505022443 28 191 0.0 0.0 0.00 0.00 0.00 25 1003.7
20260505021940 28 191 0.0 0.0 0.00 0.00 0.00 24 1003.6
20260505021436 28 187 0.0 0.0 0.00 0.00 0.00 24 1003.6
20260505020932 29 190 0.0 0.0 0.00 0.00 0.00 24 1003.6
20260505020427 29 190 0.0 3.2 0.00 0.00 0.00 24 1003.6
20260505015925 30 231 1.6 8.0 0.00 0.00 0.00 22 1003.8
20260505015422 30 193 0.0 6.4 0.00 0.00 0.00 23 1003.8
20260505014919 30 187 3.2 6.4 0.00 0.00 0.00 20 1003.8
20260505014416 31 194 0.0 8.0 0.00 0.00 0.00 21 1003.9
20260505013913 31 191 0.0 6.4 0.00 0.00 0.00 21 1004.0
20260505013409 32 188 1.6 8.0 0.00 0.00 0.00 21 1004.1
20260505012908 32 198 0.0 6.4 0.00 0.00 0.00 19 1003.9
20260505012406 32 199 1.6 6.4 0.00 0.00 0.00 19 1004.2
20260505011902 33 269 6.4 8.0 0.00 0.00 0.00 18 1004.0
20260505011358 33 186 0.0 14.5 0.00 0.00 0.00 18 1004.1
20260505010854 33 187 4.8 11.3 0.00 0.00 0.00 19 1004.0
20260505010350 33 226 0.0 3.2 0.00 0.00 0.00 20 1004.2
20260505005847 33 217 6.4 8.0 0.00 0.00 0.00 19 1004.1
20260505005344 33 194 1.6 3.2 0.00 0.00 0.00 21 1004.3
20260505004841 33 195 1.6 3.2 0.00 0.00 0.00 21 1004.2
20260505004337 33 193 0.0 3.2 0.00 0.00 0.00 23 1004.4
20260505003835 33 195 1.6 3.2 0.00 0.00 0.00 22 1004.4
20260505003332 33 194 3.2 6.4 0.00 0.00 0.00 21 1004.2
20260505002828 33 195 1.6 3.2 0.00 0.00 0.00 21 1004.3
20260505002325 32 190 1.6 3.2 0.00 0.00 0.00 23 1004.4
20260505001823 32 194 1.6 6.4 0.00 0.00 0.00 21 1004.3
20260505001320 32 169 4.8 8.0 0.00 0.00 0.00 21 1004.5
20260505000817 32 156 4.8 8.0 0.00 0.00 0.00 22 1004.5
20260505000315 32 176 1.6 6.4 0.00 0.00 0.00 24 1004.5
20260504235811 32 168 3.2 8.0 0.00 0.00 0.00 22 1004.5
20260504235308 32 162 6.4 8.0 0.00 0.00 0.00 21 1004.6
20260504234805 32 126 3.2 8.0 0.00 0.00 0.00 22 1004.7
20260504234303 33 182 1.6 6.4 0.00 0.00 0.00 22 1004.7
20260504233759 33 182 1.6 3.2 0.00 0.00 0.00 23 1004.6
20260504233255 33 173 1.6 6.4 0.00 0.00 0.00 23 1004.7
20260504232752 33 165 4.8 8.0 0.00 0.00 0.00 20 1004.6
20260504232249 34 176 8.0 8.0 0.00 0.00 0.00 20 1004.8
20260504231746 33 166 1.6 6.4 0.00 0.00 0.00 21 1004.6
20260504231242 33 195 3.2 6.4 0.00 0.00 0.00 23 1004.8
20260504230738 32 180 1.6 3.2 0.00 0.00 0.00 23 1005.0
20260504230237 32 189 1.6 6.4 0.00 0.00 0.00 23 1004.9
20260504225735 31 178 3.2 6.4 0.00 0.00 0.00 25 1005.0
20260504225231 31 172 3.2 8.0 0.00 0.00 0.00 26 1005.1
20260504224728 32 170 6.4 8.0 0.00 0.00 0.00 22 1005.1
20260504224226 33 178 6.4 8.0 0.00 0.00 0.00 22 1005.2
20260504223722 33 172 6.4 8.0 0.00 0.00 0.00 23 1005.2
20260504223217 33 176 3.2 6.4 0.00 0.00 0.00 24 1005.0
20260504222714 33 185 3.2 8.0 0.00 0.00 0.00 22 1005.3
20260504222211 33 165 3.2 6.4 0.00 0.00 0.00 22 1005.4
20260504221709 33 205 3.2 6.4 0.00 0.00 0.00 22 1005.6
20260504221206 32 188 3.2 3.2 0.00 0.00 0.00 23 1005.6
20260504220702 32 203 1.6 3.2 0.00 0.00 0.00 24 1005.6
20260504220200 32 193 4.8 6.4 0.00 0.00 0.00 22 1005.7
20260504215656 31 190 0.0 3.2 0.00 0.00 0.00 25 1005.7
20260504215154 31 181 1.6 8.0 0.00 0.00 0.00 24 1005.8
20260504214649 32 164 3.2 8.0 0.00 0.00 0.00 23 1006.0
20260504214146 33 185 8.0 8.0 0.00 0.00 0.00 20 1005.8
20260504213642 33 196 1.6 6.4 0.00 0.00 0.00 24 1006.1
20260504213139 33 196 6.4 8.0 0.00 0.00 0.00 21 1006.1
20260504212635 33 240 1.6 3.2 0.00 0.00 0.00 23 1006.2
20260504212132 32 211 4.8 8.0 0.00 0.00 0.00 20 1006.1
20260504211630 32 82 3.2 6.4 0.00 0.00 0.00 25 1006.4
20260504211126 32 289 6.4 8.0 0.00 0.00 0.00 26 1006.5
20260504210624 31 186 1.6 6.4 0.00 0.00 0.00 26 1006.3
20260504210120 31 277 9.7 14.5 0.00 0.00 0.00 22 1006.5
20260504205618 32 286 12.9 14.5 0.00 0.00 0.00 23 1006.4
20260504205115 32 227 3.2 8.0 0.00 0.00 0.00 24 1006.4
20260504204614 32 206 3.2 6.4 0.00 0.00 0.00 25 1006.7
20260504204112 32 185 0.0 6.4 0.00 0.00 0.00 27 1006.5
20260504203610 32 191 0.0 3.2 0.00 0.00 0.00 26 1006.7
20260504203108 32 197 3.2 6.4 0.00 0.00 0.00 24 1007.0
20260504202602 32 206 0.0 3.2 0.00 0.00 0.00 26 1006.7
20260504202100 31 175 1.6 8.0 0.00 0.00 0.00 31 1006.8
20260504201556 31 210 3.2 6.4 0.00 0.00 0.00 29 1006.9
20260504201054 30 186 0.0 6.4 0.00 0.00 0.00 27 1006.9
20260504200550 30 200 6.4 20.9 0.00 0.00 0.00 26 1007.0
20260504200047 30 0 3.2 6.4 0.00 0.00 0.00 27 1007.0
20260504195543 30 193 3.2 3.2 0.00 0.00 0.00 30 1007.1
20260504195040 30 283 6.4 20.9 0.00 0.00 0.00 26 1007.1
20260504194537 30 184 3.2 11.3 0.00 0.00 0.00 26 1006.9
20260504194032 30 257 8.0 11.3 0.00 0.00 0.00 25 1007.3
20260504193529 30 186 3.2 6.4 0.00 0.00 0.00 26 1007.2
20260504193028 30 203 3.2 6.4 0.00 0.00 0.00 30 1007.2
20260504192526 30 190 3.2 6.4 0.00 0.00 0.00 28 1007.2
20260504192024 29 193 4.8 8.0 0.00 0.00 0.00 27 1007.3
20260504191521 28 197 3.2 6.4 0.00 0.00 0.00 29 1007.4
20260504191017 28 192 1.6 6.4 0.00 0.00 0.00 29 1007.4
20260504190513 28 198 1.6 3.2 0.00 0.00 0.00 30 1007.3
20260504190010 27 183 1.6 6.4 0.00 0.00 0.00 35 1007.6
20260504185507 27 200 1.6 6.4 0.00 0.00 0.00 34 1007.4
20260504185003 27 218 4.8 8.0 0.00 0.00 0.00 32 1007.5
20260504184458 26 195 1.6 6.4 0.00 0.00 0.00 36 1007.7
20260504183954 26 198 6.4 8.0 0.00 0.00 0.00 37 1007.6
20260504183452 26 207 6.4 8.0 0.00 0.00 0.00 34 1007.7
20260504182949 26 208 3.2 6.4 0.00 0.00 0.00 34 1007.6
20260504182446 26 190 6.4 8.0 0.00 0.00 0.00 37 1007.5
20260504181944 26 188 3.2 6.4 0.00 0.00 0.00 36 1007.8
20260504181440 26 191 0.0 6.4 0.00 0.00 0.00 36 1007.8
20260504180939 27 187 3.2 6.4 0.00 0.00 0.00 35 1007.8
20260504180438 26 189 0.0 6.4 0.00 0.00 0.00 37 1007.7
20260504175935 26 195 1.6 3.2 0.00 0.00 0.00 36 1007.8
20260504175432 26 189 3.2 3.2 0.00 0.00 0.00 36 1007.9
20260504174930 25 190 1.6 3.2 0.00 0.00 0.00 39 1008.0
20260504174427 25 193 1.6 6.4 0.00 0.00 0.00 38 1007.9
20260504173925 25 185 1.6 6.4 0.00 0.00 0.00 38 1008.0
20260504173421 25 191 3.2 6.4 0.00 0.00 0.00 39 1008.0
20260504172919 25 190 3.2 6.4 0.00 0.00 0.00 38 1008.0
20260504172414 25 176 1.6 3.2 0.00 0.00 0.00 39 1008.1
20260504171911 24 195 3.2 6.4 0.00 0.00 0.00 41 1008.1
20260504171408 23 187 0.0 3.2 0.00 0.00 0.00 42 1008.0
20260504170905 23 187 0.0 3.2 0.00 0.00 0.00 43 1007.9
20260504170401 23 181 1.6 3.2 0.00 0.00 0.00 43 1008.1
20260504160320 19 185 4.8 6.4 0.00 0.00 0.00 52 1008.2